Terminal Aerodrome Forecast
Issued by NWS

Home | Current Version | Previous Version | Text Only | Print | Product List | Glossary On
Versions: 1 2 3 4 5 6 7 8 9 10 11 12 13 14 15 16 17 18 19 20 21 22 23 24 25 26 27 28 29
000
FTUS41 KBUF 230900 AAA
TAFJHW
TAF AMD
KJHW 230904Z 2309/2406 22015KT P6SM OVC035
     FM231000 21013KT P6SM OVC035
     FM231400 19012KT P6SM -SHRA OVC025
     FM232000 18013KT P6SM BKN060
     FM240300 15018KT P6SM VCSH OVC080 WS020/17050KT
      AMD LTD TO CLD VIS AND WIND=

USA.gov is the U.S. government's official web portal to all federal, state and local government web resources and services.